TimeCET,TemperatureF,Dew PointF,Humidity,Sea Level PressureIn,VisibilityMPH,Wind Direction,Wind SpeedMPH,Gust SpeedMPH,PrecipitationIn,Events,Conditions,WindDirDegrees,DateUTC
12:00 AM,37.4,33.8,87,30.06,-9999.0,WSW,8.1,-,N/A,,Clear,240,2012-11-06 23:00:00
1:00 AM,37.4,33.8,87,30.06,-9999.0,WSW,11.5,-,N/A,,Clear,250,2012-11-07 00:00:00
2:00 AM,39.2,33.8,81,30.04,-9999.0,WSW,12.7,-,N/A,,Clear,240,2012-11-07 01:00:00
3:00 AM,39.2,33.8,81,30.04,-9999.0,WSW,13.8,-,N/A,,Clear,250,2012-11-07 02:00:00
4:00 AM,41.0,33.8,76,30.01,-9999.0,WSW,16.1,-,N/A,,Clear,250,2012-11-07 03:00:00
5:00 AM,41.0,33.8,76,30.01,6.2,WSW,13.8,-,N/A,,Overcast,240,2012-11-07 04:00:00
6:00 AM,41.0,33.8,76,30.01,6.2,WSW,15.0,26.5,N/A,,Overcast,250,2012-11-07 05:00:00
7:00 AM,41.0,35.6,81,30.01,6.2,WSW,16.1,-,N/A,Rain,Light Rain,250,2012-11-07 06:00:00
8:00 AM,41.0,35.6,81,30.04,6.2,WSW,16.1,-,N/A,,Overcast,250,2012-11-07 07:00:00
9:00 AM,41.0,37.4,87,30.06,6.2,WSW,12.7,-,N/A,,Overcast,250,2012-11-07 08:00:00
10:00 AM,42.8,37.4,81,30.06,6.2,West,12.7,-,N/A,,Overcast,260,2012-11-07 09:00:00
11:00 AM,42.8,39.2,87,30.09,6.2,West,16.1,26.5,N/A,,Overcast,260,2012-11-07 10:00:00
12:00 PM,44.6,39.2,81,30.09,6.2,WSW,12.7,-,N/A,,Overcast,250,2012-11-07 11:00:00
1:00 PM,44.6,41.0,87,30.09,6.2,West,13.8,-,N/A,,Overcast,260,2012-11-07 12:00:00
2:00 PM,46.4,41.0,81,30.09,6.2,West,15.0,-,N/A,,Overcast,260,2012-11-07 13:00:00
3:00 PM,46.4,41.0,81,30.12,6.2,West,18.4,-,N/A,,Overcast,260,2012-11-07 14:00:00
4:00 PM,46.4,41.0,81,30.12,6.2,West,13.8,-,N/A,,Overcast,260,2012-11-07 15:00:00
5:00 PM,46.4,41.0,81,30.15,6.2,West,15.0,-,N/A,,Overcast,270,2012-11-07 16:00:00
6:00 PM,46.4,42.8,87,30.18,6.2,West,17.3,-,N/A,,Overcast,270,2012-11-07 17:00:00
7:00 PM,46.4,41.0,81,30.21,6.2,West,15.0,-,N/A,,Overcast,260,2012-11-07 18:00:00
8:00 PM,46.4,41.0,81,30.21,6.2,West,12.7,-,N/A,,Overcast,260,2012-11-07 19:00:00
9:00 PM,46.4,41.0,81,30.21,6.2,West,13.8,-,N/A,,Overcast,260,2012-11-07 20:00:00
10:00 PM,46.4,41.0,81,30.21,6.2,West,15.0,-,N/A,,Overcast,260,2012-11-07 21:00:00
11:00 PM,46.4,41.0,81,30.21,6.2,West,15.0,-,N/A,,Overcast,260,2012-11-07 22:00:00